• En España
  • Lista de países
  • Para 7 días
  • Temperatura del agua
  • Mapa Satelital
  • El tiempo en el mapa
  • Informadores
  • user-avatar
    Iniciar sesión

    Tiempo cada hora Kuntaur

    Hoy, 15 Noviembre, Jueves

    Tiempo Temperatura Precipitaciones Viento Presión Humedad
    00:00 +30°C° 0 mm 2 mps 757 mmHg 22%
    01:00 +30°C° 0 mm 2 mps 757 mmHg 23%
    02:00 +29°C° 0 mm 2 mps 757 mmHg 25%
    03:00 +29°C° 0 mm 1 mps 757 mmHg 25%
    04:00 +28°C° 0 mm 1 mps 757 mmHg 25%
    05:00 +28°C° 0 mm 1 mps 757 mmHg 25%
    06:00 +29°C° 0 mm 1 mps 757 mmHg 24%
    07:00 +30°C° 0 mm 2 mps 758 mmHg 23%
    08:00 +30°C° 0 mm 2 mps 758 mmHg 22%
    09:00 +32°C° 0 mm 2 mps 758 mmHg 20%
    10:00 +35°C° 0 mm 2 mps 758 mmHg 18%
    11:00 +36°C° 0 mm 3 mps 757 mmHg 16%
    12:00 +37°C° 0 mm 3 mps 757 mmHg 15%
    13:00 +38°C° 0 mm 2 mps 756 mmHg 15%
    14:00 +39°C° 0 mm 2 mps 755 mmHg 14%
    15:00 +39°C° 0 mm 2 mps 755 mmHg 16%
    16:00 +38°C° 0 mm 2 mps 755 mmHg 17%
    17:00 +37°C° 0 mm 2 mps 755 mmHg 18%
    18:00 +36°C° 0 mm 2 mps 756 mmHg 18%
    19:00 +35°C° 0 mm 2 mps 756 mmHg 18%
    20:00 +34°C° 0 mm 3 mps 757 mmHg 19%
    21:00 +33°C° 0 mm 3 mps 757 mmHg 19%
    22:00 +31°C° 0 mm 3 mps 757 mmHg 19%
    23:00 +31°C° 0 mm 3 mps 757 mmHg 19%

    Mañana, 16 Noviembre, Viernes

    Tiempo Temperatura Precipitaciones Viento Presión Humedad
    00:00 +30°C° 0 mm 3 mps 757 mmHg 20%
    01:00 +29°C° 0 mm 3 mps 757 mmHg 20%
    02:00 +29°C° 0 mm 3 mps 757 mmHg 21%
    03:00 +28°C° 0 mm 3 mps 757 mmHg 21%
    04:00 +28°C° 0 mm 3 mps 757 mmHg 22%
    05:00 +28°C° 0 mm 2 mps 757 mmHg 22%
    06:00 +29°C° 0 mm 3 mps 758 mmHg 20%
    07:00 +30°C° 0 mm 3 mps 758 mmHg 19%
    08:00 +32°C° 0 mm 4 mps 758 mmHg 18%
    09:00 +34°C° 0 mm 4 mps 758 mmHg 15%
    10:00 +37°C° 0 mm 4 mps 758 mmHg 13%
    11:00 +40°C° 0 mm 4 mps 758 mmHg 11%
    12:00 +41°C° 0 mm 4 mps 757 mmHg 11%
    13:00 +42°C° 0 mm 4 mps 756 mmHg 11%
    14:00 +42°C° 0 mm 3 mps 755 mmHg 11%
    15:00 +42°C° 0 mm 3 mps 755 mmHg 12%
    16:00 +40°C° 0 mm 3 mps 755 mmHg 13%
    17:00 +39°C° 0 mm 3 mps 755 mmHg 14%
    18:00 +37°C° 0 mm 3 mps 756 mmHg 15%
    19:00 +35°C° 0 mm 3 mps 756 mmHg 16%
    20:00 +34°C° 0 mm 3 mps 757 mmHg 17%
    21:00 +33°C° 0 mm 3 mps 757 mmHg 18%
    22:00 +31°C° 0 mm 3 mps 757 mmHg 19%
    23:00 +31°C° 0 mm 3 mps 757 mmHg 20%

    Pasado mañana, 17 Noviembre, Sábado

    Tiempo Temperatura Precipitaciones Viento Presión Humedad
    00:00 +30°C° 0 mm 3 mps 757 mmHg 20%
    01:00 +30°C° 0 mm 3 mps 757 mmHg 20%
    02:00 +30°C° 0 mm 3 mps 757 mmHg 20%
    03:00 +29°C° 0 mm 3 mps 757 mmHg 21%
    04:00 +28°C° 0 mm 3 mps 757 mmHg 22%
    05:00 +28°C° 0 mm 2 mps 757 mmHg 22%
    06:00 +29°C° 0 mm 3 mps 757 mmHg 21%
    07:00 +30°C° 0 mm 3 mps 758 mmHg 19%
    08:00 +31°C° 0 mm 3 mps 758 mmHg 18%
    09:00 +34°C° 0 mm 3 mps 758 mmHg 16%
    10:00 +37°C° 0 mm 3 mps 758 mmHg 13%
    11:00 +39°C° 0 mm 3 mps 758 mmHg 11%
    12:00 +40°C° 0 mm 3 mps 757 mmHg 11%
    13:00 +42°C° 0 mm 3 mps 756 mmHg 11%
    14:00 +42°C° 0 mm 3 mps 755 mmHg 12%
    15:00 +40°C° 0 mm 3 mps 755 mmHg 13%
    16:00 +40°C° 0 mm 3 mps 755 mmHg 14%
    17:00 +39°C° 0 mm 3 mps 755 mmHg 15%
    18:00 +37°C° 0 mm 3 mps 756 mmHg 17%
    19:00 +36°C° 0 mm 3 mps 756 mmHg 18%
    20:00 +34°C° 0 mm 4 mps 757 mmHg 19%
    21:00 +33°C° 0 mm 4 mps 757 mmHg 21%
    22:00 +33°C° 0 mm 4 mps 757 mmHg 22%
    23:00 +32°C° 0 mm 4 mps 757 mmHg 23%

    18 Noviembre, Domingo

    Tiempo Temperatura Precipitaciones Viento Presión Humedad
    00:00 +32°C° 0 mm 4 mps 757 mmHg 23%
    01:00 +30°C° 0 mm 4 mps 757 mmHg 22%
    02:00 +30°C° 0 mm 4 mps 757 mmHg 22%
    03:00 +30°C° 0 mm 3 mps 757 mmHg 22%
    04:00 +29°C° 0 mm 3 mps 757 mmHg 22%
    05:00 +29°C° 0 mm 2 mps 757 mmHg 22%
    06:00 +29°C° 0 mm 2 mps 757 mmHg 22%
    07:00 +30°C° 0 mm 2 mps 758 mmHg 23%
    08:00 +30°C° 0 mm 2 mps 758 mmHg 23%
    09:00 +32°C° 0 mm 2 mps 758 mmHg 22%
    10:00 +34°C° 0 mm 2 mps 758 mmHg 22%
    11:00 +35°C° 0 mm 2 mps 758 mmHg 21%
    12:00 +36°C° 0 mm 2 mps 757 mmHg 21%
    13:00 +37°C° 0 mm 2 mps 756 mmHg 21%
    14:00 +37°C° 0 mm 2 mps 755 mmHg 21%
    15:00 +37°C° 0 mm 2 mps 755 mmHg 22%
    16:00 +37°C° 0 mm 2 mps 755 mmHg 23%
    17:00 +35°C° 0 mm 1 mps 755 mmHg 24%
    18:00 +35°C° 0 mm 2 mps 756 mmHg 26%
    19:00 +34°C° 0 mm 2 mps 757 mmHg 27%
    20:00 +32°C° 0 mm 2 mps 757 mmHg 29%
    21:00 +31°C° 0 mm 2 mps 757 mmHg 31%
    22:00 +30°C° 0 mm 2 mps 757 mmHg 32%
    23:00 +29°C° 0 mm 3 mps 757 mmHg 33%

    19 Noviembre, Lunes

    Tiempo Temperatura Precipitaciones Viento Presión Humedad
    00:00 +29°C° 0 mm 3 mps 757 mmHg 35%
    01:00 +28°C° 0 mm 3 mps 757 mmHg 36%
    02:00 +27°C° 0 mm 3 mps 756 mmHg 38%
    03:00 +26°C° 0 mm 3 mps 756 mmHg 40%
    04:00 +26°C° 0 mm 3 mps 756 mmHg 41%
    05:00 +25°C° 0 mm 3 mps 756 mmHg 43%
    06:00 +26°C° 0 mm 3 mps 757 mmHg 39%
    07:00 +27°C° 0 mm 3 mps 758 mmHg 34%
    08:00 +28°C° 0 mm 3 mps 758 mmHg 29%
    09:00 +31°C° 0 mm 3 mps 758 mmHg 25%
    10:00 +34°C° 0 mm 3 mps 758 mmHg 20%
    11:00 +37°C° 0 mm 3 mps 757 mmHg 15%
    12:00 +38°C° 0 mm 3 mps 757 mmHg 16%
    13:00 +39°C° 0 mm 3 mps 756 mmHg 16%
    14:00 +40°C° 0 mm 3 mps 755 mmHg 16%
    15:00 +39°C° 0 mm 2 mps 755 mmHg 17%
    16:00 +38°C° 0 mm 2 mps 755 mmHg 18%
    17:00 +37°C° 0 mm 2 mps 755 mmHg 19%
    18:00 +36°C° 0 mm 2 mps 756 mmHg 21%
    19:00 +34°C° 0 mm 2 mps 756 mmHg 23%
    20:00 +31°C° 0 mm 2 mps 757 mmHg 25%
    21:00 +30°C° 0 mm 3 mps 757 mmHg 26%
    22:00 +29°C° 0 mm 3 mps 757 mmHg 27%
    23:00 +28°C° 0 mm 3 mps 757 mmHg 29%

    20 Noviembre, Martes

    Tiempo Temperatura Precipitaciones Viento Presión Humedad
    00:00 +28°C° 0 mm 3 mps 757 mmHg 32%
    01:00 +27°C° 0 mm 3 mps 757 mmHg 35%
    02:00 +26°C° 0 mm 3 mps 756 mmHg 38%
    03:00 +25°C° 0 mm 3 mps 757 mmHg 40%
    04:00 +25°C° 0 mm 2 mps 757 mmHg 43%
    05:00 +24°C° 0 mm 2 mps 757 mmHg 45%
    06:00 +26°C° 0 mm 2 mps 758 mmHg 41%
    07:00 +27°C° 0 mm 2 mps 758 mmHg 37%
    08:00 +28°C° 0 mm 3 mps 759 mmHg 32%
    09:00 +31°C° 0 mm 3 mps 758 mmHg 27%
    10:00 +35°C° 0 mm 3 mps 758 mmHg 22%
    11:00 +37°C° 0 mm 3 mps 758 mmHg 17%
    12:00 +38°C° 0 mm 3 mps 757 mmHg 17%
    13:00 +39°C° 0 mm 2 mps 756 mmHg 16%
    14:00 +40°C° 0 mm 2 mps 755 mmHg 16%
    15:00 +39°C° 0 mm 2 mps 755 mmHg 17%
    16:00 +39°C° 0 mm 2 mps 755 mmHg 18%
    17:00 +38°C° 0 mm 2 mps 755 mmHg 19%
    18:00 +36°C° 0 mm 2 mps 756 mmHg 21%
    19:00 +34°C° 0 mm 2 mps 757 mmHg 23%
    20:00 +32°C° 0 mm 2 mps 757 mmHg 25%
    21:00 +31°C° 0 mm 3 mps 757 mmHg 27%
    22:00 +30°C° 0 mm 3 mps 757 mmHg 28%
    23:00 +29°C° 0 mm 3 mps 757 mmHg 30%
    Mostrar más